FW9021 Weather Reports


Display with metric or nautical units.
time (UTC)temp
F
wind
direction
speed
MPH
gust
MPH
rain 1hr
in
rain 24hr
in
rain mn
in
humidity
%
barometer
mb
20260506145039 63 246 10.0 17.0 0.22 0.22 0.22 87 1014.8
20260506144602 63 244 10.0 18.0 0.21 0.21 0.21 87 1014.6
20260506144038 63 256 6.0 18.0 0.21 0.21 0.21 87 1014.3
20260506143539 63 226 10.0 18.0 0.14 0.14 0.14 86 1014.6
20260506143050 64 225 8.0 16.0 0.12 0.12 0.12 86 1014.3
20260506142539 64 252 9.0 15.0 0.00 0.00 0.00 85 1014.3
20260506142038 64 253 6.0 15.0 0.00 0.00 0.00 85 1014.3
20260506141544 64 304 7.0 16.0 0.00 0.00 0.00 84 1014.1
20260506141039 65 254 10.0 16.0 0.00 0.00 0.00 84 1014.0
20260506140538 65 257 10.0 16.0 0.00 0.00 0.00 84 1013.8
20260506140043 65 239 9.0 15.0 0.00 0.00 0.00 84 1013.7
20260506135538 65 235 10.0 15.0 0.00 0.00 0.00 83 1013.6
20260506135039 65 237 9.0 15.0 0.00 0.00 0.00 83 1013.4
20260506134554 65 221 8.0 16.0 0.00 0.00 0.00 82 1013.2
20260506134038 65 247 10.0 16.0 0.00 0.00 0.00 82 1013.5
20260506133539 65 254 7.0 15.0 0.00 0.00 0.00 81 1013.7
20260506133053 65 251 9.0 15.0 0.00 0.00 0.00 81 1013.7
20260506132539 65 235 6.0 15.0 0.00 0.00 0.00 81 1013.4
20260506132039 65 267 4.0 11.0 0.00 0.00 0.00 81 1013.4
20260506131552 65 254 4.0 8.0 0.00 0.00 0.00 80 1013.5
20260506131038 65 322 1.0 4.0 0.00 0.00 0.00 80 1013.4
20260506130539 65 0 1.0 6.0 0.00 0.00 0.00 79 1013.1
20260506130052 65 0 2.0 6.0 0.00 0.00 0.00 80 1013.0
20260506125538 65 328 1.0 4.0 0.00 0.00 0.00 79 1013.1
20260506125041 65 280 1.0 6.0 0.00 0.00 0.00 79 1013.0
20260506124551 65 0 1.0 13.0 0.00 0.00 0.00 79 1012.9
20260506124041 65 309 2.0 13.0 0.00 0.00 0.00 79 1013.1
20260506123538 65 268 6.0 13.0 0.00 0.00 0.00 79 1013.0
20260506123058 65 267 4.0 9.0 0.00 0.00 0.00 79 1012.9
20260506122538 65 0 3.0 9.0 0.00 0.00 0.00 79 1013.0
20260506122039 65 273 3.0 13.0 0.00 0.00 0.00 79 1012.7
20260506121554 65 275 6.0 16.0 0.00 0.00 0.00 79 1012.5
20260506121039 65 192 4.0 16.0 0.00 0.00 0.00 78 1012.5
20260506120538 66 168 6.0 13.0 0.00 0.00 0.00 77 1013.0
20260506120050 66 278 3.0 12.0 0.00 0.00 0.00 77 1013.0
20260506115541 66 247 7.0 12.0 0.00 0.00 0.00 77 1013.2
20260506115038 66 258 4.0 13.0 0.00 0.00 0.00 76 1013.0
20260506114553 66 246 6.0 13.0 0.00 0.00 0.00 76 1013.0
20260506114038 66 252 5.0 11.0 0.00 0.00 0.00 76 1012.9
20260506113538 66 267 6.0 11.0 0.00 0.00 0.00 76 1012.9
20260506113044 66 178 3.0 10.0 0.00 0.00 0.00 75 1012.8
20260506112542 66 236 2.0 13.0 0.00 0.00 0.00 75 1012.7
20260506112043 66 271 3.0 13.0 0.00 0.00 0.00 75 1012.8
20260506111558 66 247 6.0 13.0 0.00 0.00 0.00 75 1012.8
20260506111038 66 246 5.0 11.0 0.00 0.00 0.00 75 1012.2
20260506110538 66 326 2.0 9.0 0.00 0.00 0.00 75 1012.1
20260506110047 66 266 3.0 10.0 0.00 0.00 0.00 74 1012.0
20260506105538 66 221 5.0 15.0 0.00 0.00 0.00 74 1012.1
20260506105041 66 265 2.0 15.0 0.00 0.00 0.00 73 1012.1
20260506104555 67 211 3.0 15.0 0.00 0.00 0.00 74 1012.3
20260506104038 67 223 5.0 15.0 0.00 0.00 0.00 74 1012.3
20260506103538 67 255 8.0 15.0 0.00 0.00 0.00 74 1012.6
20260506103049 67 241 7.0 14.0 0.00 0.00 0.00 73 1012.5
20260506102542 67 146 7.0 14.0 0.00 0.00 0.00 74 1012.5
20260506102038 67 243 8.0 17.0 0.00 0.00 0.00 72 1012.3
20260506101546 67 241 10.0 17.0 0.00 0.00 0.00 73 1012.2
20260506101040 67 215 8.0 17.0 0.00 0.00 0.00 73 1012.1
20260506100538 68 240 9.0 19.0 0.00 0.00 0.00 72 1012.1
20260506100048 68 229 8.0 19.0 0.00 0.00 0.00 72 1012.0
20260506095539 68 237 8.0 17.0 0.00 0.00 0.00 72 1012.0
20260506095040 68 209 9.0 17.0 0.00 0.00 0.00 72 1011.8
20260506094553 68 244 6.0 17.0 0.00 0.00 0.00 72 1011.8
20260506094038 68 246 6.0 23.0 0.00 0.00 0.00 72 1011.8
20260506093539 68 244 9.0 23.0 0.00 0.00 0.00 72 1011.6
20260506093048 68 250 8.0 17.0 0.00 0.00 0.00 72 1011.5
20260506092539 68 259 10.0 17.0 0.00 0.00 0.00 72 1011.7
20260506092039 68 196 7.0 17.0 0.00 0.00 0.00 72 1011.6
20260506091549 68 189 3.0 19.0 0.00 0.00 0.00 72 1011.4
20260506091039 68 219 11.0 19.0 0.00 0.00 0.00 71 1011.2
20260506090538 68 253 3.0 12.0 0.00 0.00 0.00 72 1011.0
20260506090044 68 144 6.0 12.0 0.00 0.00 0.00 73 1011.1
20260506085538 68 321 4.0 11.0 0.00 0.00 0.00 72 1011.3
20260506085041 67 249 3.0 9.0 0.00 0.00 0.00 72 1011.4
20260506084555 68 235 2.0 9.0 0.00 0.00 0.00 73 1011.4
20260506084038 68 231 4.0 12.0 0.00 0.00 0.00 73 1011.3
20260506083538 68 258 7.0 12.0 0.00 0.00 0.00 74 1011.3
20260506083100 68 250 4.0 9.0 0.00 0.00 0.00 73 1011.1
20260506082538 68 256 1.0 6.0 0.00 0.00 0.00 73 1011.3
20260506082040 68 0 0.0 7.0 0.00 0.00 0.00 72 1011.3
20260506081554 68 273 0.0 7.0 0.00 0.00 0.00 71 1011.6
20260506081038 68 271 3.0 6.0 0.00 0.00 0.00 73 1011.5
20260506080542 68 274 1.0 11.0 0.00 0.00 0.00 72 1011.4
20260506073102 69 257 8.0 23.0 0.00 0.00 0.00 70 1011.7
20260506072543 69 223 9.0 22.0 0.00 0.00 0.00 70 1011.7
20260506072041 69 189 9.0 19.0 0.00 0.00 0.00 70 1011.7
20260506071551 69 234 7.0 23.0 0.00 0.00 0.00 70 1011.5
20260506071042 69 267 10.0 23.0 0.00 0.00 0.00 70 1011.7
20260506070540 69 222 10.0 22.0 0.00 0.00 0.00 69 1011.7
20260506062040 69 262 2.0 20.0 0.00 0.00 0.00 63 1012.0
20260506061544 69 271 7.0 20.0 0.00 0.00 0.00 65 1012.1
20260506061040 69 264 5.0 11.0 0.00 0.00 0.00 64 1012.4
20260506060541 69 232 6.0 18.0 0.00 0.00 0.00 63 1012.5
20260506051041 69 261 0.0 4.0 0.00 0.00 0.00 58 1012.7
20260506050540 69 312 2.0 6.0 0.00 0.00 0.00 59 1012.6
20260506050106 69 205 2.0 7.0 0.00 0.00 0.00 57 1012.8
20260506045040 69 298 2.0 7.0 0.00 0.00 0.00 57 1012.5
20260506044552 69 228 3.0 7.0 0.00 0.00 0.00 58 1012.6
20260506044041 69 336 2.0 7.0 0.00 0.00 0.00 56 1012.7
20260506043540 69 115 2.0 7.0 0.00 0.00 0.00 58 1013.0
20260506043049 69 228 3.0 7.0 0.00 0.00 0.00 59 1012.9
20260506042540 69 219 2.0 6.0 0.00 0.00 0.00 60 1012.7
20260506042040 69 0 2.0 10.0 0.00 0.00 0.00 58 1012.8
20260506041553 69 269 3.0 10.0 0.00 0.00 0.00 57 1012.7
20260506041040 69 234 3.0 8.0 0.00 0.00 0.00 58 1012.6
20260506040540 69 315 0.0 7.0 0.00 0.00 0.00 58 1012.4
20260506040050 69 256 2.0 7.0 0.00 0.00 0.00 57 1012.4
20260506035540 69 273 0.0 7.0 0.00 0.00 0.00 57 1012.4
20260506035041 69 0 0.0 7.0 0.00 0.00 0.00 57 1012.6
20260506034549 69 0 1.0 7.0 0.00 0.00 0.00 58 1012.9
20260506034038 69 198 1.0 7.0 0.00 0.00 0.00 55 1012.8
20260506033538 69 146 1.0 6.0 0.00 0.00 0.00 58 1012.8
20260506033049 68 0 2.0 6.0 0.00 0.00 0.00 57 1012.9
20260506032538 68 316 1.0 3.0 0.00 0.00 0.00 56 1013.0
20260506032038 68 43 0.0 2.0 0.00 0.00 0.00 56 1013.0
20260506031552 68 38 0.0 2.0 0.00 0.00 0.00 57 1013.0
20260506031040 68 0 0.0 2.0 0.00 0.00 0.00 57 1013.1
20260506030540 68 174 0.0 3.0 0.00 0.00 0.00 60 1013.1
20260506030057 68 0 0.0 3.0 0.00 0.00 0.00 57 1013.0
20260506025538 68 177 1.0 3.0 0.00 0.00 0.00 57 1012.9
20260506025042 68 157 0.0 2.0 0.00 0.00 0.00 57 1013.0
20260506024559 68 157 0.0 2.0 0.00 0.00 0.00 57 1012.9
20260506024038 68 0 0.0 2.0 0.00 0.00 0.00 59 1012.9
20260506023539 67 109 0.0 2.0 0.00 0.00 0.00 59 1012.8
20260506023044 67 46 0.0 2.0 0.00 0.00 0.00 60 1012.9
20260506022538 68 0 0.0 2.0 0.00 0.00 0.00 59 1012.8
20260506022038 67 0 0.0 2.0 0.00 0.00 0.00 60 1012.8
20260506021556 67 0 1.0 2.0 0.00 0.00 0.00 60 1012.8
20260506021038 67 0 0.0 2.0 0.00 0.00 0.00 60 1012.8
20260506020538 67 0 0.0 2.0 0.00 0.00 0.00 60 1012.8
20260506020047 67 0 0.0 3.0 0.00 0.00 0.00 60 1012.8
20260506015538 67 352 0.0 3.0 0.00 0.00 0.00 60 1012.7
20260506015038 67 326 1.0 3.0 0.00 0.00 0.00 62 1012.7
20260506014545 66 0 1.0 3.0 0.00 0.00 0.00 61 1012.5
20260506014038 66 0 1.0 3.0 0.00 0.00 0.00 60 1012.6
20260506013538 66 92 1.0 3.0 0.00 0.00 0.00 62 1012.5
20260506013048 66 50 1.0 3.0 0.00 0.00 0.00 63 1012.3
20260506012538 66 131 1.0 3.0 0.00 0.00 0.00 63 1012.4
20260506012038 66 131 1.0 3.0 0.00 0.00 0.00 62 1012.4
20260506011615 67 134 1.0 3.0 0.00 0.00 0.00 61 1012.2
20260506011038 67 134 0.0 3.0 0.00 0.00 0.00 60 1012.2
20260506010538 67 0 1.0 3.0 0.00 0.00 0.00 59 1012.3
20260506010048 67 134 1.0 2.0 0.00 0.00 0.00 59 1012.3
20260506005538 68 134 0.0 2.0 0.00 0.00 0.00 58 1012.4
20260506005043 68 134 0.0 2.0 0.00 0.00 0.00 57 1012.3
20260506004551 69 134 0.0 2.0 0.00 0.00 0.00 57 1012.4
20260506004038 69 134 0.0 2.0 0.00 0.00 0.00 56 1012.3
20260506003539 69 0 0.0 2.0 0.00 0.00 0.00 56 1012.3
20260506003051 69 0 0.0 3.0 0.00 0.00 0.00 55 1012.3
20260506002538 70 0 0.0 3.0 0.00 0.00 0.00 54 1012.4
20260506002038 70 76 0.0 3.0 0.00 0.00 0.00 53 1012.7
20260506001557 70 0 1.0 3.0 0.00 0.00 0.00 52 1012.5
20260506001038 70 282 0.0 3.0 0.00 0.00 0.00 53 1012.4
20260506000538 70 0 1.0 3.0 0.00 0.00 0.00 51 1012.4
20260506000057 70 0 0.0 3.0 0.00 0.00 0.00 52 1012.5
20260505235538 70 107 0.0 4.0 0.00 0.00 0.00 52 1012.4
20260505235038 70 252 2.0 7.0 0.00 0.00 0.00 51 1012.4
20260505234546 70 304 2.0 7.0 0.00 0.00 0.00 50 1012.2
20260505234042 70 275 3.0 7.0 0.00 0.00 0.00 52 1012.1
20260505233538 69 261 1.0 7.0 0.00 0.00 0.00 54 1012.1
20260505233048 69 227 1.0 3.0 0.00 0.00 0.00 56 1012.0
20260505232538 69 9 0.0 3.0 0.00 0.00 0.00 57 1011.8
20260505232039 69 90 1.0 3.0 0.00 0.00 0.00 55 1011.8
20260505231549 69 70 1.0 4.0 0.00 0.00 0.00 57 1011.9
20260505231038 70 234 0.0 4.0 0.00 0.00 0.00 55 1012.1
20260505230538 70 102 1.0 7.0 0.00 0.00 0.00 55 1012.1
20260505230059 70 0 1.0 7.0 0.00 0.00 0.00 52 1012.2
20260505225543 70 279 3.0 7.0 0.00 0.00 0.00 52 1012.4
20260505225038 71 294 2.0 6.0 0.00 0.00 0.00 53 1012.2
20260505224550 71 239 3.0 6.0 0.00 0.00 0.00 51 1012.1
20260505224039 71 298 2.0 6.0 0.00 0.00 0.00 52 1012.1
20260505223545 71 294 1.0 4.0 0.00 0.00 0.00 48 1012.5
20260505223052 72 284 1.0 6.0 0.00 0.00 0.00 49 1012.6
20260505222538 72 248 1.0 7.0 0.00 0.00 0.00 50 1012.8
20260505222038 72 266 2.0 10.0 0.00 0.00 0.00 47 1012.8
20260505221601 72 246 5.0 11.0 0.00 0.00 0.00 47 1012.9
20260505221039 72 240 5.0 12.0 0.00 0.00 0.00 46 1012.9
20260505220539 72 252 5.0 12.0 0.00 0.00 0.00 44 1012.8
20260505220100 72 248 6.0 12.0 0.00 0.00 0.00 44 1012.8
20260505215541 72 232 5.0 10.0 0.00 0.00 0.00 44 1012.7
20260505215038 72 259 4.0 10.0 0.00 0.00 0.00 45 1012.7
20260505214553 73 231 5.0 11.0 0.00 0.00 0.00 45 1012.7
20260505214039 73 278 4.0 12.0 0.00 0.00 0.00 44 1012.7
20260505213539 73 244 6.0 12.0 0.00 0.00 0.00 45 1012.5
20260505213049 73 273 6.0 12.0 0.00 0.00 0.00 44 1012.2
20260505212538 73 300 5.0 16.0 0.00 0.00 0.00 43 1012.1
20260505212038 73 264 7.0 16.0 0.00 0.00 0.00 42 1012.3
20260505211551 74 269 8.0 15.0 0.00 0.00 0.00 44 1012.4
20260505211041 74 286 4.0 13.0 0.00 0.00 0.00 41 1012.4
20260505210538 74 266 6.0 13.0 0.00 0.00 0.00 44 1012.4
20260505210053 74 265 4.0 13.0 0.00 0.00 0.00 44 1012.5
20260505205538 74 297 7.0 13.0 0.00 0.00 0.00 45 1012.3
20260505205040 74 274 7.0 13.0 0.00 0.00 0.00 44 1012.2
20260505204557 74 289 7.0 13.0 0.00 0.00 0.00 46 1012.3
20260505204041 74 261 5.0 15.0 0.00 0.00 0.00 45 1012.3
20260505203540 74 259 6.0 15.0 0.00 0.00 0.00 45 1012.5
20260505203050 74 281 5.0 14.0 0.00 0.00 0.00 43 1012.5
20260505202539 74 248 8.0 14.0 0.00 0.00 0.00 42 1012.5
20260505202038 74 269 8.0 15.0 0.00 0.00 0.00 41 1012.4
20260505201550 74 296 8.0 15.0 0.00 0.00 0.00 44 1012.3
20260505201039 74 269 7.0 15.0 0.00 0.00 0.00 44 1012.2
20260505200538 73 266 7.0 12.0 0.00 0.00 0.00 46 1012.4
20260505200048 74 278 5.0 13.0 0.00 0.00 0.00 46 1012.4
20260505195538 73 254 8.0 13.0 0.00 0.00 0.00 46 1012.7
20260505195038 73 314 7.0 17.0 0.00 0.00 0.00 45 1012.8
20260505194558 73 261 9.0 17.0 0.00 0.00 0.00 46 1012.8
20260505194040 73 263 7.0 12.0 0.00 0.00 0.00 48 1012.7
20260505193539 73 342 7.0 11.0 0.00 0.00 0.00 46 1012.9
20260505193046 73 211 5.0 10.0 0.00 0.00 0.00 47 1012.9
20260505192538 73 227 3.0 10.0 0.00 0.00 0.00 47 1012.9
20260505192041 73 306 6.0 14.0 0.00 0.00 0.00 47 1012.9
20260505191543 73 300 8.0 16.0 0.00 0.00 0.00 48 1013.1
20260505191038 73 276 9.0 16.0 0.00 0.00 0.00 48 1013.3
20260505190539 73 345 7.0 14.0 0.00 0.00 0.00 47 1013.5
20260505190043 73 233 7.0 13.0 0.00 0.00 0.00 48 1013.6
20260505185539 73 266 7.0 15.0 0.00 0.00 0.00 47 1013.6
20260505185043 72 264 7.0 15.0 0.00 0.00 0.00 45 1013.8
20260505184552 72 222 6.0 14.0 0.00 0.00 0.00 45 1013.7
20260505184041 72 254 6.0 14.0 0.00 0.00 0.00 47 1013.7
20260505183543 72 254 6.0 14.0 0.00 0.00 0.00 46 1013.7
20260505183052 72 267 7.0 14.0 0.00 0.00 0.00 45 1013.9
20260505182538 72 269 6.0 14.0 0.00 0.00 0.00 44 1013.8
20260505182038 72 250 9.0 14.0 0.00 0.00 0.00 46 1013.9
20260505181544 72 238 7.0 12.0 0.00 0.00 0.00 43 1013.8
20260505181042 72 342 6.0 12.0 0.00 0.00 0.00 45 1014.0
20260505180538 72 254 6.0 12.0 0.00 0.00 0.00 46 1013.9
20260505180052 72 298 7.0 14.0 0.00 0.00 0.00 45 1014.0
20260505175541 72 285 7.0 18.0 0.00 0.00 0.00 44 1014.1
20260505175041 72 262 11.0 18.0 0.00 0.00 0.00 44 1014.4
20260505174551 72 269 11.0 16.0 0.00 0.00 0.00 44 1014.3
20260505174039 72 253 9.0 16.0 0.00 0.00 0.00 42 1014.4
20260505173539 72 257 5.0 14.0 0.00 0.00 0.00 43 1014.5
20260505173045 71 261 8.0 15.0 0.00 0.00 0.00 41 1014.6
20260505172540 71 287 7.0 15.0 0.00 0.00 0.00 42 1014.7
20260505172041 71 245 8.0 15.0 0.00 0.00 0.00 46 1014.8
20260505171549 71 239 6.0 12.0 0.00 0.00 0.00 43 1014.8
20260505171040 71 259 4.0 11.0 0.00 0.00 0.00 43 1014.9
20260505170541 71 259 6.0 11.0 0.00 0.00 0.00 40 1014.9
20260505170051 71 178 6.0 11.0 0.00 0.00 0.00 41 1014.9
20260505165540 71 268 6.0 14.0 0.00 0.00 0.00 41 1014.8
20260505165040 71 281 3.0 14.0 0.00 0.00 0.00 43 1014.6
20260505164558 70 278 5.0 14.0 0.00 0.00 0.00 42 1014.6
20260505164041 70 281 5.0 15.0 0.00 0.00 0.00 40 1014.6
20260505163540 70 332 6.0 15.0 0.00 0.00 0.00 38 1014.9
20260505163048 70 297 5.0 15.0 0.00 0.00 0.00 41 1014.9
20260505162539 69 257 6.0 16.0 0.00 0.00 0.00 43 1015.2
20260505162040 69 264 5.0 18.0 0.00 0.00 0.00 48 1015.2
20260505161555 69 265 11.0 19.0 0.00 0.00 0.00 50 1015.2
20260505161042 69 259 10.0 19.0 0.00 0.00 0.00 49 1015.2
20260505160540 69 241 9.0 16.0 0.00 0.00 0.00 51 1015.2
20260505153104 68 296 8.0 26.0 0.00 0.00 0.00 57 1015.2
20260505152543 67 240 13.0 26.0 0.00 0.00 0.00 58 1015.3
20260505152039 67 228 11.0 21.0 0.00 0.00 0.00 56 1015.3
20260505151553 67 240 7.0 14.0 0.00 0.00 0.00 59 1015.3
20260505151040 66 207 3.0 8.0 0.00 0.00 0.00 59 1015.4
20260505150540 66 259 1.0 4.0 0.00 0.00 0.00 60 1015.5